Regional Weather Roundup
Issued by NWS

Home | Current Version | Previous Version | Graphics & Text | Print | Product List | Glossary On
Versions: 1 2 3 4 5 6 7 8 9 10 11 12 13 14 15 16 17 18 19 20 21 22 23 24 25 26 27 28 29 30 31 32 33 34 35 36 37 38 39 40 41 42 43 44 45 46 47 48 49 50
000
ASUS43 KMKX 211021
RWRWI

WISCONSIN REGIONAL WEATHER ROUNDUP
NATIONAL WEATHER SERVICE MILWAUKEE/SULLIVAN WI
400 AM CST TUE NOV 21 2017

NOTE: "FAIR" INDICATES FEW OR NO CLOUDS BELOW 12,000 FEET WITH NO
SIGNIFICANT WEATHER AND/OR OBSTRUCTIONS TO VISIBILITY.

WIZ001-002-006>008-014>016-023>028-211100-
NORTHWEST WISCONSIN

CITY           SKY/WX    TMP DP  RH WIND       PRES   REMARKS
SUPERIOR ARPT  CLOUDY    28  13  54 NW22G33   29.56R WCI  14
ASHLAND        CLOUDY    31  18  58 W25G36    29.49R WCI  17
HAYWARD        MOCLDY    31  17  56 NW9G24    29.51R WCI  23
SIREN          CLOUDY    30  17  60 W21G32    29.60R WCI  17
CUMBERLAND     MOCLDY    30  19  64 W25G32    29.55R WCI  16
RICE LAKE      MOCLDY    32  21  64 W13G30    29.57R WCI  23
CHETEK         MOCLDY    33  24  69 W14G21    29.55R WCI  23
LADYSMITH      MOCLDY    34  22  61 W23       29.52R WCI  22
EAU CLAIRE     CLEAR     35  22  58 W17G26    29.56R WCI  25
MENOMONIE      CLEAR     34  20  58 W18G29    29.60R WCI  23
NEW RICHMOND   PTCLDY    30  17  59 NW28G37   29.63R WCI  15
OSCEOLA        MOCLDY    29  16  58 W23G39    29.68R WCI  15
$$

WIZ003>005-009-010-017-018-211100-
NORTH CENTRAL WISCONSIN

CITY           SKY/WX    TMP DP  RH WIND       PRES   REMARKS
MANITOWISH WTR PTCLDY    31  19  60 W16G24    29.39R WCI  20
ARBOR VITAE    CLEAR     36  26  66 W13G22    29.39R WCI  28
WOODRUFF       CLEAR     36  26  66 W13G22    29.39R WCI  28
RHINELANDER    CLEAR     34  24  67 W15       29.40R WCI  24
EAGLE RIVER    CLEAR     33  19  55 W18G25    29.38R WCI  22
LAND O LAKES   CLOUDY    35  26  69 W5G20     29.37R WCI  31
PHILLIPS       MOCLDY    32  23  68 W7G16     29.44R WCI  26
TOMAHAWK       CLEAR     33  22  64 W14G22    29.43R WCI  24
MEDFORD        CLEAR     34  21  60 W23G35    29.46R WCI  21
MERRILL        CLEAR     35  24  64 W17       29.45R WCI  25
$$

WIZ029-030-035-036-043>047-211100-
CENTRAL WISCONSIN

CITY           SKY/WX    TMP DP  RH WIND       PRES   REMARKS
WAUSAU         CLEAR     37  25  61 W17G24    29.45R WCI  27
MOSINEE        CLEAR     36  28  75 W15G21    29.48R WCI  26
MARSHFIELD     CLEAR     36  24  62 W15G24    29.48R WCI  27
STEVENS POINT  CLEAR     38  25  58 W14G21    29.49R WCI  30
WAUPACA        CLEAR     44  28  52 W14G21    29.48R
WAUTOMA        CLEAR     42  27  55 SW13      29.50S
WISC RAPIDS    CLEAR     40  26  57 W17G28    29.51R WCI  31
CAMP DOUGLAS   CLEAR    N/A N/A N/A W17       29.54R
$$

WIZ011>013-019>022-031-037>040-048>050-211100-
NORTHEAST WISCONSIN

CITY           SKY/WX    TMP DP  RH WIND       PRES   REMARKS
ANTIGO         CLEAR     35  26  70 W12G20    29.42R WCI  26
SHAWANO        CLEAR     43  27  53 W13G20    29.44R
OCONTO         CLEAR     41  28  61 SW7       29.42R
STURGEON BAY   CLEAR     45  29  53 SW14      29.42R
GREEN BAY      CLEAR     42  31  64 SW9       29.44S
MANITOWOC      CLEAR     46  30  53 SW14      29.48S
APPLETON       CLEAR     41  27  56 SW16G22   29.45S
CLINTONVILLE   CLEAR     43  27  52 W15G22    29.45R
OSHKOSH        CLEAR     43  30  60 VRB7      29.49S
$$

WIZ032>034-041-042-053>061-211100-
SOUTHWEST WISCONSIN

CITY           SKY/WX    TMP DP  RH WIND       PRES   REMARKS
LA CROSSE      PTCLDY    41  21  44 NW13G22   29.61R
SPARTA         CLEAR     39  26  59 W13G18    29.58R WCI  31
VIROQUA        PTCLDY    38  28  66 W10       29.58S WCI  31
BOSCOBEL       PTCLDY    43  28  55 SW8       29.62S
PRAIRIE DU CHI MOCLDY    41  26  55 W9        29.64S
PLATTEVILLE    PTCLDY    38  32  78 W10       29.64R WCI  31
$$

WIZ056-057-062-063-064-067-068-211100-
SOUTH CENTRAL WISCONSIN

CITY           SKY/WX    TMP DP  RH WIND       PRES   REMARKS
REEDSBURG      CLEAR     41  28  60 SW10      29.56R
BARABOO/DELLS  CLEAR     43  26  52 W15       29.55S
LONE ROCK      CLEAR     40  30  67 W10       29.59S WCI  33
MINERAL POINT  CLEAR     41  32  70 W12       29.61R
MADISON        CLEAR     43  32  65 SW8       29.57S
MIDDLETON      CLEAR     43  31  62 W12       29.58S
WATERTOWN      CLEAR     41  33  72 SW8       29.56S
MONROE         CLEAR     41  32  70 SW14      29.60S
JANESVILLE     PTCLDY    41  32  70 SW7       29.60F
$$

WIZ051-052-058>065-066-070>072-211100-
SOUTHEAST WISCONSIN

CITY           SKY/WX    TMP DP  RH WIND       PRES   REMARKS
MILWAUKEE      MOCLDY    43  32  65 SW13      29.58R
WAUKESHA       CLEAR     41  30  65 SW10G16   29.58S
MILWAUKEE/TIMM CLOUDY    45  30  57 SW14      29.57S
RACINE         CLOUDY    44  32  62 SW15G25   29.62R
BURLINGTON     PTCLDY    43  36  77 SW12      29.60S
KENOSHA        CLOUDY    44  31  60 SW17G25   29.61R
FOND DU LAC    CLEAR     42  30  62 SW13      29.50F
SHEBOYGAN      CLEAR     44  32  62 SW13G21   29.50S
WEST BEND      CLEAR     43  30  61 SW9       29.53S
JUNEAU         PTCLDY    40  31  69 SW12      29.55S WCI  34
$$

LSZ147-162-211100-
LAKE SUPERIOR

STATION/POSITION TIME  TEMP    WIND        PRES    WAVE
                       AIR SEA DIR/SP/G            HT/PER
                 (UTC) (F)     (DEG/KT/KT) (MB)    (FT/S)
DEVILS ISLAND    1000   31     290/ 34/ 40  998.1R
SAXON HARBOR     0930   35     270/ 14/ 24  996.6R
$$

LMZ867-665-643>646-211100-
LAKE MICHIGAN

STATION/POSITION TIME  TEMP    WIND        PRES    WAVE
                       AIR SEA DIR/SP/G            HT/PER
                 (UTC) (F)     (DEG/KT/KT) (MB)    (FT/S)
N MID LAKE BUOY  0950   48 48  230/ 23/ 29  994.4F  10/ 8
NORTHPORT PIER   0940   46     220/  8/ 22  994.9S
KEWAUNEE LAKESHO 0954   46     240/ 10/ 16  996.5S
SHEBOYGAN LAKESH 1000   46     230/ 13/ 15  999.2R
PORT WASHINGTON  0930   47     240/  8/ 17 1001.4R
MILWAUKEE LAKESH 1000   45     220/ 14/ 15   N/A
S MID LAKE BUOY  0950   47 48  250/ 25/ 33 1002.4F   8/ 7
KENOSHA   LAKESH 1000   46     230/ 18/ 25 1003.4
$$

TC  - TEMPERATURE IN CELSIUS
VSB - VISIBILITY IN STATUTE MILES
WCI - WIND CHILL INDEX
HX  - HEAT INDEX





USA.gov is the U.S. government's official web portal to all federal, state and local government web resources and services.